Location: Podia
(1.5569°N, 32.3469°E)
Time: 17:49:25
(UTC+00:00)

N. Korean satellite - Visible Passes

Search period start: 14 May 2021 00:00
Search period end: 24 May 2021 00:00
Orbit: 450 x 501 km, 97.2° (Epoch: 13 May)

Date Brightness Start Highest point End Pass type
(mag) Time Alt. Az. Time Alt. Az. Time Alt. Az.
14 May 6.5 02:48:02 10° NNE 02:51:25 79° ESE 02:54:51 10° S visible
15 May 8.7 02:21:33 10° NE 02:24:22 24° E 02:27:13 10° SSE visible
17 May 6.5 02:59:56 10° N 03:03:17 60° W 03:06:41 10° SSW visible
18 May 7.8 02:33:00 10° NNE 02:36:13 40° E 02:39:29 10° S visible
19 May 9.5 02:07:17 10° ENE 02:09:10 14° ESE 02:11:04 10° SE visible
20 May 7.1 03:11:58 10° NNW 03:15:06 35° W 03:18:18 10° SSW visible
21 May 6.7 02:44:37 10° NNE 02:48:01 69° E 02:51:30 10° S visible
22 May 8.9 02:18:13 10° NE 02:20:58 22° ESE 02:23:44 10° SSE visible
